www.pogodaiklimat.ru

Погода и климат >> Архив погоды >> Норвегия >> Рейпа


ПОГОДА в Рейпе

  • Прогноз погоды в Рейпе
  • Монитор погоды в Рейпе

АРХИВ ПОГОДЫ в Рейпе

Время (UTC), дата Ветер
(напр.,м/с)
 
Видим.   Явления Облачность Т
(С)
Тd
(С)
f
(%)
Тe
(С)
Тes
(С)
Комфортность P
(гПа)
Po
(гПа)
Тmin
(С)
Tmax
(С)
R
(мм)
R24
(мм)
S
(см)
13 14.07 ЮЗ 8
{11}
н/о н/о +10.3 +9.9 97 +6 +6 1016.2 1015.2 0.6
14 14.07 З 5
{9}
н/о н/о +11.0 +9.4 90 +8 +8 1016.3 1015.3
15 14.07 ЮЗ 5
{7}
н/о н/о +11.7 +8.6 81 +9 +9 1016.2 1015.2
16 14.07 З 5
{7}
н/о н/о +11.5 +8.0 79 +9 +9 1016.2 1015.2
22 16.07 СВ 2 н/о н/о +10.4 +8.3 87 +9 +9 1016.3 1015.3
23 16.07 СВ 2 н/о н/о +9.6 +7.9 89 +8 +8 1016.2 1015.2
01 17.07 В 3 н/о н/о +8.7 +7.6 93 +6 +6 1015.9 1014.9
02 17.07 СВ 3 н/о н/о +9.3 +8.2 93 +7 +7 1015.7 1014.7
04 17.07 СВ 3 н/о н/о +11.3 +6.2 71 +10 +10 1015.2 1014.2
06 17.07 С 4
{7}
>70 км 5/0 2000 м
[Ac trans Ci sp]
+12.7 +6.1 64 +11 +13 1014.8 1013.8 +6.8
07 17.07 С 3
{6}
н/о н/о +13.2 +7.0 66 +12 +12 1014.6 1013.6
08 17.07 С 4
{7}
н/о н/о +13.0 +6.4 64 +11 +11 1014.3 1013.3
09 17.07 С 6
{8}
н/о н/о +12.3 +6.2 66 +10 +10 1014.2 1013.2
10 17.07 С 4
{8}
н/о н/о +12.8 +6.6 66 +11 +11 1014.2 1013.2
11 17.07 С 5
{9}
н/о н/о +14.3 +7.6 64 +13 +13 1014.0 1013.0
12 17.07 С 5
{9}
н/о н/о +14.4 +7.2 62 +13 +13 1013.8 1012.8
13 17.07 С 5
{8}
н/о н/о +14.5 +7.3 62 +13 +13 1013.6 1012.6
14 17.07 С 5
{9}
н/о н/о +14.5 +7.1 61 +13 +13 1013.5 1012.5
15 17.07 С 6
{9}
н/о н/о +13.9 +7.2 64 +12 +12 1013.3 1012.3
16 17.07 С 5
{8}
н/о н/о +13.8 +7.1 64 +12 +12 1013.2 1012.2
17 17.07 С 5
{9}
н/о н/о +13.3 +6.7 64 +11 +11 1012.9 1011.9
18 17.07 С 5
{9}
н/о н/о +12.7 +7.0 68 +11 +11 1012.6 1011.6 +11.9 +15.3
19 17.07 С 5
{8}
н/о н/о +12.4 +6.7 68 +10 +10 1012.4 1011.4
20 17.07 С 3
{8}
н/о н/о +11.2 +6.6 73 +9 +9 1012.4 1011.4
21 17.07 СВ 3
{5}
н/о н/о +11.0 +6.8 75 +9 +9 1012.2 1011.2
22 17.07 СВ 3
{4}
н/о н/о +8.4 +6.5 88 +6 +6 1012.1 1011.1
23 17.07 С 3
{4}
н/о н/о +7.6 +6.5 93 +5 +5 1012.1 1011.1
00 18.07 СВ 3
{8}
н/о н/о +7.9 +7.5 97 +5 +5 1011.7 1010.7
01 18.07 СВ 2
{4}
н/о н/о +6.1 +5.8 98 +3 +3 1011.5 1010.5
02 18.07 СВ 4
{4}
н/о н/о +6.4 +6.4 100 +2 +2 1011.3 1010.3
03 18.07 СВ 3
{4}
н/о н/о +6.7 +6.7 100 +3 +3 1011.0 1010.0
04 18.07 СВ 1
{4}
н/о н/о +10.1 +9.3 95 +10 +10 1011.0 1010.0
05 18.07 штиль 0
{2}
н/о н/о +11.6 +9.2 85 +11 +11 1010.8 1009.8
06 18.07 СЗ 1
{4}
н/о н/о +13.3 +8.8 74 +14 +14 1010.7 1009.7 +5.7 +13.3 0.1
07 18.07 ЮЗ 1
{3}
н/о н/о +13.9 +9.4 74 +14 +14 1010.5 1009.5
08 18.07 ЮЗ 1
{3}
н/о н/о +14.7 +9.5 71 +15 +15 1010.6 1009.6
09 18.07 Ю 2
{3}
н/о н/о +17.4 +10.3 63 +18 +18 1010.6 1009.6
10 18.07 З 2
{3}
н/о н/о +18.2 +10.1 59 +19 +19 1010.4 1009.4
11 18.07 СЗ 4
{6}
н/о н/о +18.8 +10.4 58 +19 +19 1010.2 1009.2
12 18.07 СЗ 4
{7}
н/о н/о +19.5 +10.5 56 +21 +21 комфорт 1010.0 1009.0
13 18.07 С 3
{7}
н/о н/о +20.2 +9.5 50 +22 +22 комфорт 1009.9 1008.9
14 18.07 С 4
{7}
н/о н/о +19.6 +9.5 52 +21 +21 комфорт 1009.7 1008.7
15 18.07 СЗ 3
{7}
н/о н/о +20.6 +11.0 54 +23 +23 комфорт 1009.4 1008.4
16 18.07 С 5
{8}
н/о н/о +20.5 +9.7 50 +22 +22 комфорт 1009.1 1008.1
17 18.07 С 3
{8}
н/о н/о +20.9 +9.5 48 +23 +23 комфорт 1008.9 1007.9
18 18.07 Ю 3
{8}
н/о н/о +17.8 +10.7 63 +18 +18 1009.0 1008.0 +13.3 +21.4
19 18.07 С 1
{4}
н/о н/о +17.2 +10.3 64 +18 +18 1009.2 1008.2
20 18.07 штиль 0
{3}
н/о н/о +15.2 +11.0 76 +15 +15 1009.2 1008.2
21 18.07 СВ 1
{2}
н/о н/о +13.2 +11.3 88 +13 +13 1009.4 1008.4
22 18.07 СВ 2
{3}
н/о н/о +11.5 +9.9 90 +10 +10 1009.6 1008.6
23 18.07 СВ 2
{3}
н/о н/о +10.9 +9.0 88 +10 +10 1009.6 1008.6
00 19.07 СВ 2
{4}
н/о н/о +10.6 +8.0 84 +9 +9 1009.6 1008.6
01 19.07 СВ 3
{4}
н/о н/о +9.1 +8.2 94 +7 +7 1009.3 1008.3
02 19.07 СВ 1
{4}
н/о н/о +9.7 +8.5 92 +9 +9 1009.3 1008.3
03 19.07 В 3
{4}
н/о н/о +11.1 +10.0 93 +9 +9 1009.2 1008.2
04 19.07 СВ 3
{4}
н/о н/о +14.3 +10.9 80 +13 +13 1009.1 1008.1
05 19.07 СВ 3
{4}
н/о н/о +17.0 +11.5 70 +17 +17 1008.9 1007.9
06 19.07 ЮЗ 1
{4}
н/о н/о +18.1 +9.7 58 +19 +19 1008.9 1007.9 +9.0 +18.5
07 19.07 ЮЗ 1
{1}
н/о н/о +18.6 +10.7 60 +20 +20 1008.9 1007.9
08 19.07 ЮЗ 1
{2}
н/о н/о +19.2 +10.0 55 +21 +21 комфорт 1008.8 1007.8
09 19.07 ЮЗ 1
{2}
н/о н/о +21.0 +10.5 51 +24 +24 комфорт 1008.8 1007.8
10 19.07 Ю 1
{2}
н/о н/о +21.2 +11.0 52 +23 +23 комфорт 1008.9 1007.9
11 19.07 С 4
{6}
н/о н/о +21.4 +10.3 49 +23 +23 комфорт 1009.0 1008.0
12 19.07 С 4
{7}
н/о н/о +21.8 +10.0 47 +23 +23 комфорт 1009.1 1008.1
13 19.07 С 3
{6}
н/о н/о +22.5 +10.0 45 +24 +24 комфорт 1009.1 1008.1
14 19.07 СЗ 4
{6}
н/о н/о +22.5 +10.0 45 +24 +24 комфорт 1009.1 1008.1
15 19.07 С 4
{6}
н/о н/о +21.9 +9.8 46 +23 +23 комфорт 1009.2 1008.2
17 19.07 С 3
{6}
н/о н/о +21.8 +11.2 51 +24 +24 комфорт 1009.0 1008.0
18 19.07 З 1
{7}
н/о н/о +20.0 +11.8 59 +23 +23 комфорт 1009.3 1008.3 +17.4 +23.0 0.1
19 19.07 ЮЗ 1
{1}
н/о н/о +20.0 +11.2 57 +23 +23 комфорт 1009.3 1008.3
20 19.07 В 1
{1}
н/о н/о +17.2 +12.5 74 +18 +18 1009.7 1008.7
21 19.07 В 1
{3}
н/о н/о +15.4 +13.1 86 +16 +16 1009.9 1008.9
22 19.07 С 1
{2}
н/о н/о +13.6 +12.5 93 +14 +14 1010.3 1009.3
23 19.07 штиль 0
{2}
н/о н/о +13.5 +12.6 94 +13 +13 1010.9 1009.9
00 20.07 СЗ 1
{4}
н/о н/о +15.0 +12.9 87 +15 +15 1011.5 1010.5 0.1
01 20.07 З 4
{5}
н/о н/о +14.2 +13.3 94 +13 +13 1011.9 1010.9
02 20.07 З 4
{5}
н/о н/о +13.4 +13.1 98 +12 +12 1012.3 1011.3
03 20.07 ЮЗ 2
{4}
н/о н/о +13.4 +13.1 98 +13 +13 1012.6 1011.6
04 20.07 З 1
{3}
н/о н/о +13.4 +13.1 98 +13 +13 1012.9 1011.9
05 20.07 С 1
{2}
н/о н/о +14.0 +12.9 93 +14 +14 1013.0 1012.0
06 20.07 З 3
{5}
н/о н/о +14.4 +13.5 94 +13 +13 1013.2 1012.2 +13.2 +21.2
07 20.07 З 3
{4}
н/о н/о +15.4 +13.6 89 +15 +15 1013.2 1012.2
08 20.07 ЮЗ 4
{4}
н/о н/о +16.5 +13.4 82 +16 +16 1013.3 1012.3 0.1
09 20.07 ЮЗ 4
{5}
н/о н/о +16.9 +13.4 80 +16 +16 1013.5 1012.5
10 20.07 ЮЗ 3
{6}
н/о н/о +15.8 +13.8 88 +15 +15 1013.9 1012.9
11 20.07 ЮЗ 4
{5}
н/о н/о +15.1 +13.3 89 +14 +14 1014.5 1013.5
12 20.07 СВ 3
{6}
н/о н/о +13.6 +13.3 98 +12 +12 1013.7 1012.7 2
13 20.07 З 2
{5}
н/о н/о +17.0 +15.7 92 +17 +17 1013.5 1012.5 0.9
14 20.07 СЗ 4
{7}
н/о н/о +15.4 +14.1 92 +14 +14 1013.7 1012.7
15 20.07 СЗ 4
{7}
н/о н/о +15.7 +13.5 87 +15 +15 1013.6 1012.6
16 20.07 ЮЗ 1
{5}
н/о н/о +15.6 +13.3 86 +16 +16 1013.2 1012.2 0.3
17 20.07 СЗ 2
{5}
н/о н/о +16.5 +13.6 83 +17 +17 1012.8 1011.8
18 20.07 С 3
{7}
н/о н/о +15.8 +13.5 86 +15 +15 1012.4 1011.4 +13.5 +18.0 0.1
19 20.07 С 3
{5}
н/о н/о +14.5 +12.9 90 +14 +14 1012.2 1011.2
20 20.07 С 2
{4}
н/о н/о +13.6 +12.8 95 +13 +13 1011.9 1010.9
21 20.07 С 3
{5}
н/о н/о +12.9 +12.6 98 +11 +11 1011.8 1010.8
22 20.07 С 2
{5}
н/о н/о +12.0 +11.9 99 +11 +11 1011.6 1010.6
23 20.07 СВ 2
{3}
н/о н/о +11.0 +11.0 100 +10 +10 1011.2 1010.2
00 21.07 СВ 2
{5}
н/о н/о +10.2 +10.2 100 +9 +9 1010.7 1009.7
01 21.07 СВ 1
{4}
н/о н/о +10.9 +10.9 100 +10 +10 1010.2 1009.2
02 21.07 Ю 1
{5}
н/о н/о +12.3 +12.3 100 +12 +12 1009.7 1008.7
03 21.07 СВ 2
{3}
н/о н/о +12.9 +12.9 100 +12 +12 1009.6 1008.6
04 21.07 Ю 1
{5}
н/о н/о +13.9 +13.6 98 +14 +14 1009.6 1008.6
05 21.07 С 1
{3}
н/о н/о +16.9 +15.9 94 +18 +18 1009.5 1008.5
06 21.07 СВ 2
{5}
н/о н/о +18.9 +14.0 73 +20 +20 1009.2 1008.2 +9.9 +18.9
07 21.07 СЗ 1
{2}
н/о н/о +19.8 +14.4 71 +23 +23 комфорт 1009.4 1008.4
08 21.07 С 1
{2}
н/о н/о +20.4 +14.3 68 +24 +24 комфорт 1009.5 1008.5
09 21.07 ЮЗ 1
{3}
н/о н/о +20.3 +15.7 75 +24 +24 комфорт 1009.6 1008.6
10 21.07 ЮЗ 1
{3}
н/о н/о +19.9 +14.5 71 +23 +23 комфорт 1009.8 1008.8
11 21.07 З 1
{3}
н/о н/о +21.5 +14.7 65 +25 +25 комфорт 1009.9 1008.9
12 21.07 З 2
{3}
н/о н/о +22.5 +14.1 59 +26 +26 жарко 1009.9 1008.9
13 21.07 З 1
{3}
н/о н/о +23.8 +14.2 55 +26 +26 жарко 1009.9 1008.9 0.1

 

Местоположение метеостанции Рейпа (Норвегия): широта 66.90 долгота 13.65 высота над уровнем моря 9 м.

В архиве по умолчанию представлена погода в Рейпе за последнюю неделю. Архивные данные за месяц целиком и за предыдущие месяцы, начиная с января 2011 года, Вы можете получить, выбрав интересующий диапазон дат из раскрывающегося списка и нажав кнопку "Ввод!".


*Определитесь, кто Вы:
робот инопланетянин человек

Внимание! Время в таблицах - всемирное. Для получения местного времени необходимо прибавить поправку, которая равна 1 ч.

Смотрите также архив погоды в соседних городах и на ближайших метеорологических станциях:

Погода в Бодо (Норвегия) (51 км)
Погода на Мыкене (Норвегия) (53 км)
Погода в Хеллигвере (Норвегия) (57 км)
Погода в Аэропорту Mo i Rana (Норвегия) (67 км)
Погода в Сторфоршее (Норвегия) (68 км)
Погода в Хяртасене (Норвегия) (72 км)
Погода в Салтдале (Норвегия) (73 км)
Погода в Скамдале (Норвегия) (74 км)
Погода в Солвер III (Норвегия) (75 км)
Погода в Сетсе (Норвегия) (85 км)

Пояснения к столбцам:

Ветер - указаны скорость ветра в м/с - средняя за 10 мин, порывы в срок и между сроками (в фигурных скобках) и направление, откуда дует ветер: С - северный, СВ - северо-восточный, В - восточный, ЮВ - юго-восточный, Ю - южный, ЮЗ - юго-западный, З - западный, СЗ - северо-западный.
Видимость - горизонтальная дальность видимости в метрах или километрах. При видимости от 1 до 10 км при отсутствии осадков обычно наблюдается дымка, при ухудшении видимости до 1 км и менее - туман. В сухую погоду видимость может ухудшаться дымом, пылью или мглою.
Явления - указаны атмосферные явления, наблюдавшиеся в срок или в последний час перед сроком; фигурными скобками обозначены явления, наблюдавшиеся между сроками (за 1-3 часа до срока); квадратными скобками обозначены град или гололедные отложения с указанием их диаметра в мм.
Облачность - указаны через наклонную черту общая и нижняя облачность в баллах и высота нижней границы облаков в метрах; квадратными скобками обозначены формы облаков: Ci - перистые, Cs - перисто-слоистые, Cc - перисто-кучевые, Ac - высококучевые, As - высокослоистые, Sc - слоисто-кучевые, Ns - слоисто-дождевые, Cu - кучевые, Cb - кучево-дождевые. Подробнее классификацию облаков см. в Атласе облаков (PDF).
T - Температура воздуха - температура, измеренная на высоте 2 м над землей.
Td - Температура точки росы - температура, при понижении до которой содержащийся в воздухе водяной пар достигнет насыщения.
f - Относительная влажность воздуха - влажноcть воздуха, измеренная на высоте 2 м над землей.
Te - Эффективная температура - температура, которую ощущает одетый по сезону человек в тени. Характеристика душности погоды. При расчете учитывается влияние влажности воздуха и скорости ветра на теплоощущения человека.
Tes - Эффективная температура на солнце - температура, которую ощущает человек, с поправкой на солнечный нагрев. Характеристика знойности погоды. Зависит от высоты солнца над горизонтом, облачности и скорости ветра. Ночью, в пасмурную погоду, а также при ветре 12 м/с и более поправка равна нулю.
P - Атмосферное давление - приведенное к уровню моря атмосферное давление.
Po - Атмосферное давление - измеренное на уровне метеостанции атмосферное давление.
Tmin - Минимальная температура - минимум температуры воздуха на высоте 2 м над землей.
Tmax - Максимальная температура - максимум температуры воздуха на высоте 2 м над землей.
R - Количество осадков - Количество выпавших осадков за период времени, мм. При наведении курсора мыши на число - период времени, за который выпало указанное количество осадков.
R24 - Количество осадков - Количество выпавших осадков за 24 часа, мм.
S - Снежный покров - Высота снежного покрова, см. При наведении курсора мыши на число - состояние снежного покрова и степень покрытия местности в баллах.